Regional Weather Roundup
Issued by NWS

Home | Current Version | Previous Version | Graphics & Text | Print | Product List | Glossary On
Versions: 1 2 3 4 5 6 7 8 9 10 11 12 13 14 15 16 17 18 19 20 21 22 23 24 25 26 27
000
ASUS45 KCYS 311110
RWRWY

WYOMING REGIONAL WEATHER ROUNDUP
NATIONAL WEATHER SERVICE CHEYENNE WY
500 AM MDT FRI OCT 31 2014

NOTE:  "FAIR" INDICATES FEW OR NO CLOUDS BELOW 12,000 FEET
WITH NO SIGNIFICANT WEATHER AND/OR OBSTRUCTIONS TO VISIBILITY.

WYZ001-311200-
YELLOWSTONE NATIONAL PARK

CITY           SKY/WX    TMP DP  RH WIND       PRES   REMARKS
LK YELLOWSTONE   N/A     28  26  92 CALM      30.21F
W YELLOWSTONE  NOT AVBL

$$
WYZ002>013-054>058-071-098>099-311200-
NORTHERN WYOMING

CITY           SKY/WX    TMP DP  RH WIND       PRES   REMARKS
JACKSON        MOCLDY    28  27  93 NE3       30.18F
CODY           MOCLDY    45  28  53 S13       30.09
GREYBULL       CLOUDY    34  22  61 S3        30.10F
WORLAND        MOCLDY    34  22  61 S9        30.11F WCI  27
SHERIDAN       MOCLDY    41  27  57 S7        30.11F
BUFFALO        MOCLDY    38  25  59 SE24      30.14F WCI  27
GILLETTE       PTCLDY    34  29  82 S26G35    30.22F WCI  21
HULETT         FAIR      30  28  93 CALM      30.29  FOG
NEWCASTLE      FAIR      28  28 100 SE12      30.36  WCI  18

$$
WYZ014>020-022>026-101>103-311200-
CENTRAL WYOMING

CITY           SKY/WX    TMP DP  RH WIND       PRES   REMARKS
BIG PINEY      PTCLDY    25  20  81 CALM      30.23F
PINEDALE       MOSUNNY   23  23 100 W7        30.23  WCI  15
DUBOIS         FAIR      30  25  80 NW10      30.21F WCI  21
LANDER         MOCLDY    36  27  69 SW3       30.18F
RIVERTON       CLOUDY    35  23  61 NW6       30.18F WCI  30
CASPER         PTCLDY    25  21  85 CALM      30.22F
DOUGLAS        PTCLDY    35  29  78 SE21G30   30.27F WCI  24

$$
WYZ021-027>030-104>119-311200-
SOUTHERN WYOMING

CITY           SKY/WX    TMP DP  RH WIND       PRES   REMARKS
EVANSTON       MOCLDY    43  20  39 E7        30.19F
KEMMERER       CLOUDY    37  27  65 N12       30.20F WCI  30
FORT BRIDGER   FAIR      36  25  65 CALM      30.23F
ROCK SPRINGS   PTCLDY    38  24  57 E5        30.20S WCI  34
DIXON          FAIR      34  25  71 CALM      30.26F
RAWLINS        MOCLDY    24  17  74 CALM      30.26F
SARATOGA       FAIR      34  27  75 SE6       30.27F WCI  29
LARAMIE        CLEAR     32  24  72 S15       30.29F WCI  22
CHEYENNE       PTCLDY    31  26  82 S13       30.34F WCI  21
TORRINGTON     PTCLDY    30  28  92 E8        30.37F WCI  22
PINE BLUFFS    FAIR      30  27  86 S3        30.38F

$$



USA.gov is the U.S. government's official web portal to all federal, state and local government web resources and services.